| time (UTC) | temp C | wind direction | speed KPH | gust KPH | rain 1hr cm | rain 24hr cm | rain mn cm | humidity % | barometer mb |
| 20260506092510 | 18 | 101 | 0.0 | 3.2 | 0.00 | 0.00 | 0.00 | 62 | 1028.8 |
| 20260506092007 | 18 | 101 | 0.0 | 4.8 | 0.00 | 0.00 | 0.00 | 61 | 1028.8 |
| 20260506091510 | 18 | 91 | 0.0 | 4.8 | 0.00 | 0.00 | 0.00 | 61 | 1028.9 |
| 20260506091007 | 18 | 95 | 0.0 | 0.0 | 0.00 | 0.00 | 0.00 | 60 | 1029.0 |
| 20260506090509 | 18 | 95 | 0.0 | 0.0 | 0.00 | 0.00 | 0.00 | 61 | 1028.9 |
| 20260506090007 | 18 | 98 | 0.0 | 0.0 | 0.00 | 0.00 | 0.00 | 60 | 1028.9 |
| 20260506085507 | 18 | 98 | 0.0 | 0.0 | 0.00 | 0.00 | 0.00 | 60 | 1028.8 |
| 20260506085005 | 18 | 96 | 0.0 | 0.0 | 0.00 | 0.00 | 0.00 | 60 | 1028.9 |
| 20260506084508 | 18 | 96 | 0.0 | 0.0 | 0.00 | 0.00 | 0.00 | 60 | 1029.1 |
| 20260506084005 | 18 | 96 | 0.0 | 0.0 | 0.00 | 0.00 | 0.00 | 60 | 1029.1 |
| 20260506083505 | 18 | 96 | 0.0 | 6.4 | 0.00 | 0.00 | 0.00 | 59 | 1029.0 |
| 20260506083007 | 18 | 96 | 0.0 | 6.4 | 0.00 | 0.00 | 0.00 | 59 | 1029.1 |
| 20260506082505 | 18 | 93 | 0.0 | 0.0 | 0.00 | 0.00 | 0.00 | 59 | 1029.2 |
| 20260506082003 | 18 | 93 | 0.0 | 0.0 | 0.00 | 0.00 | 0.00 | 59 | 1029.0 |
| 20260506081503 | 18 | 93 | 0.0 | 0.0 | 0.00 | 0.00 | 0.00 | 59 | 1029.0 |
| 20260506081003 | 18 | 93 | 0.0 | 0.0 | 0.00 | 0.00 | 0.00 | 58 | 1029.2 |
| 20260506080503 | 18 | 93 | 0.0 | 3.2 | 0.00 | 0.00 | 0.00 | 58 | 1029.2 |
| 20260506073100 | 18 | 90 | 0.0 | 0.0 | 0.00 | 0.00 | 0.00 | 59 | 1029.1 |
| 20260506072600 | 18 | 105 | 0.0 | 4.8 | 0.00 | 0.00 | 0.00 | 59 | 1029.1 |
| 20260506072100 | 18 | 79 | 0.0 | 4.8 | 0.00 | 0.00 | 0.00 | 59 | 1029.2 |
| 20260506071558 | 18 | 84 | 0.0 | 0.0 | 0.00 | 0.00 | 0.00 | 58 | 1029.2 |
| 20260506071058 | 18 | 89 | 0.0 | 3.2 | 0.00 | 0.00 | 0.00 | 58 | 1029.2 |
| 20260506070558 | 18 | 89 | 0.0 | 3.2 | 0.00 | 0.00 | 0.00 | 58 | 1029.2 |
| 20260506062050 | 17 | 83 | 0.0 | 0.0 | 0.00 | 0.00 | 0.00 | 62 | 1029.8 |
| 20260506061554 | 17 | 82 | 0.0 | 0.0 | 0.00 | 0.00 | 0.00 | 62 | 1029.9 |
| 20260506061050 | 17 | 94 | 0.0 | 0.0 | 0.00 | 0.00 | 0.00 | 62 | 1030.0 |
| 20260506060546 | 17 | 86 | 0.0 | 0.0 | 0.00 | 0.00 | 0.00 | 63 | 1030.0 |
| 20260506051040 | 15 | 84 | 0.0 | 0.0 | 0.00 | 0.00 | 0.00 | 71 | 1030.4 |
| 20260506050536 | 15 | 84 | 0.0 | 0.0 | 0.00 | 0.00 | 0.00 | 71 | 1030.5 |
| 20260506045035 | 15 | 81 | 0.0 | 1.6 | 0.00 | 0.00 | 0.00 | 76 | 1030.4 |
| 20260506044533 | 14 | 81 | 0.0 | 1.6 | 0.00 | 0.00 | 0.00 | 78 | 1030.4 |
| 20260506044032 | 14 | 81 | 0.0 | 1.6 | 0.00 | 0.00 | 0.00 | 79 | 1030.4 |
| 20260506043531 | 14 | 81 | 0.0 | 3.2 | 0.00 | 0.00 | 0.00 | 80 | 1030.3 |
| 20260506043033 | 14 | 81 | 0.0 | 3.2 | 0.00 | 0.00 | 0.00 | 81 | 1030.3 |
| 20260506042531 | 14 | 91 | 0.0 | 0.0 | 0.00 | 0.00 | 0.00 | 80 | 1030.3 |
| 20260506042029 | 14 | 91 | 0.0 | 0.0 | 0.00 | 0.00 | 0.00 | 79 | 1030.3 |
| 20260506041528 | 14 | 91 | 0.0 | 0.0 | 0.00 | 0.00 | 0.00 | 79 | 1030.3 |
| 20260506041026 | 15 | 91 | 0.0 | 0.0 | 0.00 | 0.00 | 0.00 | 78 | 1030.3 |
| 20260506040526 | 15 | 91 | 0.0 | 0.0 | 0.00 | 0.00 | 0.00 | 78 | 1030.4 |
| 20260506040035 | 15 | 91 | 0.0 | 0.0 | 0.00 | 0.00 | 0.00 | 78 | 1030.4 |
| 20260506035524 | 15 | 91 | 0.0 | 0.0 | 0.00 | 0.00 | 0.00 | 79 | 1030.4 |
| 20260506035026 | 14 | 91 | 0.0 | 0.0 | 0.00 | 0.00 | 0.00 | 79 | 1030.5 |
| 20260506034528 | 14 | 91 | 0.0 | 0.0 | 0.00 | 0.00 | 0.00 | 79 | 1030.4 |
| 20260506034023 | 14 | 91 | 0.0 | 0.0 | 0.00 | 0.00 | 0.00 | 79 | 1030.4 |
| 20260506033524 | 14 | 91 | 0.0 | 0.0 | 0.00 | 0.00 | 0.00 | 78 | 1030.4 |
| 20260506033024 | 15 | 91 | 0.0 | 0.0 | 0.00 | 0.00 | 0.00 | 78 | 1030.5 |
| 20260506032525 | 15 | 91 | 0.0 | 0.0 | 0.00 | 0.00 | 0.00 | 78 | 1030.4 |
| 20260506032024 | 15 | 91 | 0.0 | 0.0 | 0.00 | 0.00 | 0.00 | 77 | 1030.4 |
| 20260506031524 | 15 | 91 | 0.0 | 0.0 | 0.00 | 0.00 | 0.00 | 76 | 1030.5 |
| 20260506031024 | 15 | 91 | 0.0 | 0.0 | 0.00 | 0.00 | 0.00 | 75 | 1030.5 |
| 20260506030525 | 15 | 91 | 0.0 | 0.0 | 0.00 | 0.00 | 0.00 | 74 | 1030.5 |
| 20260506030022 | 15 | 91 | 0.0 | 0.0 | 0.00 | 0.00 | 0.00 | 74 | 1030.4 |
| 20260506025522 | 15 | 91 | 0.0 | 0.0 | 0.00 | 0.00 | 0.00 | 74 | 1030.4 |
| 20260506025023 | 16 | 91 | 0.0 | 0.0 | 0.00 | 0.00 | 0.00 | 73 | 1030.4 |
| 20260506024528 | 16 | 91 | 0.0 | 0.0 | 0.00 | 0.00 | 0.00 | 73 | 1030.5 |
| 20260506024025 | 16 | 91 | 0.0 | 0.0 | 0.00 | 0.00 | 0.00 | 72 | 1030.5 |
| 20260506023521 | 16 | 91 | 0.0 | 0.0 | 0.00 | 0.00 | 0.00 | 71 | 1030.3 |
| 20260506023028 | 16 | 91 | 0.0 | 0.0 | 0.00 | 0.00 | 0.00 | 71 | 1030.5 |
| 20260506022521 | 17 | 91 | 0.0 | 0.0 | 0.00 | 0.00 | 0.00 | 69 | 1030.5 |
| 20260506022022 | 17 | 91 | 0.0 | 0.0 | 0.00 | 0.00 | 0.00 | 70 | 1030.6 |
| 20260506021531 | 17 | 91 | 0.0 | 0.0 | 0.00 | 0.00 | 0.00 | 69 | 1030.6 |
| 20260506021023 | 17 | 91 | 0.0 | 0.0 | 0.00 | 0.00 | 0.00 | 69 | 1030.6 |
| 20260506020521 | 17 | 91 | 0.0 | 0.0 | 0.00 | 0.00 | 0.00 | 69 | 1030.6 |
| 20260506020021 | 17 | 91 | 0.0 | 0.0 | 0.00 | 0.00 | 0.00 | 68 | 1030.5 |
| 20260506015521 | 17 | 91 | 0.0 | 0.0 | 0.00 | 0.00 | 0.00 | 67 | 1030.4 |
| 20260506015026 | 17 | 91 | 0.0 | 0.0 | 0.00 | 0.00 | 0.00 | 67 | 1030.5 |
| 20260506014521 | 17 | 91 | 0.0 | 0.0 | 0.00 | 0.00 | 0.00 | 66 | 1030.4 |
| 20260506014020 | 18 | 91 | 0.0 | 0.0 | 0.00 | 0.00 | 0.00 | 66 | 1030.5 |
| 20260506013520 | 18 | 91 | 0.0 | 0.0 | 0.00 | 0.00 | 0.00 | 66 | 1030.4 |
| 20260506013020 | 18 | 91 | 0.0 | 0.0 | 0.00 | 0.00 | 0.00 | 66 | 1030.4 |
| 20260506012520 | 18 | 91 | 0.0 | 0.0 | 0.00 | 0.00 | 0.00 | 66 | 1030.2 |
| 20260506012021 | 18 | 91 | 0.0 | 0.0 | 0.00 | 0.00 | 0.00 | 65 | 1030.4 |
| 20260506011521 | 18 | 91 | 0.0 | 0.0 | 0.00 | 0.00 | 0.00 | 65 | 1030.3 |
| 20260506011020 | 18 | 91 | 0.0 | 0.0 | 0.00 | 0.00 | 0.00 | 64 | 1030.2 |
| 20260506010520 | 19 | 91 | 0.0 | 0.0 | 0.00 | 0.00 | 0.00 | 63 | 1030.1 |
| 20260506010038 | 19 | 91 | 0.0 | 0.0 | 0.00 | 0.00 | 0.00 | 63 | 1030.0 |
| 20260506005520 | 19 | 91 | 0.0 | 0.0 | 0.00 | 0.00 | 0.00 | 62 | 1030.0 |
| 20260506005018 | 19 | 91 | 0.0 | 0.0 | 0.00 | 0.00 | 0.00 | 62 | 1030.0 |
| 20260506004518 | 20 | 91 | 0.0 | 0.0 | 0.00 | 0.00 | 0.00 | 60 | 1029.9 |
| 20260506004019 | 20 | 91 | 0.0 | 0.0 | 0.00 | 0.00 | 0.00 | 59 | 1029.8 |
| 20260506003518 | 20 | 91 | 0.0 | 0.0 | 0.00 | 0.00 | 0.00 | 58 | 1029.9 |
| 20260506003018 | 20 | 91 | 0.0 | 0.0 | 0.00 | 0.00 | 0.00 | 58 | 1029.7 |
| 20260506002519 | 20 | 91 | 0.0 | 0.0 | 0.00 | 0.00 | 0.00 | 57 | 1029.7 |
| 20260506002019 | 21 | 91 | 0.0 | 0.0 | 0.00 | 0.00 | 0.00 | 56 | 1029.6 |
| 20260506001518 | 21 | 91 | 0.0 | 0.0 | 0.00 | 0.00 | 0.00 | 56 | 1029.6 |
| 20260506001018 | 21 | 91 | 0.0 | 0.0 | 0.00 | 0.00 | 0.00 | 56 | 1029.6 |
| 20260506000518 | 22 | 91 | 0.0 | 3.2 | 0.00 | 0.00 | 0.00 | 53 | 1029.5 |
| 20260506000016 | 22 | 91 | 0.0 | 8.0 | 0.00 | 0.00 | 0.00 | 52 | 1029.4 |
| 20260505235516 | 22 | 94 | 1.6 | 8.0 | 0.00 | 0.00 | 0.00 | 51 | 1029.4 |
| 20260505235016 | 22 | 91 | 0.0 | 8.0 | 0.00 | 0.00 | 0.00 | 51 | 1029.3 |
| 20260505234531 | 22 | 70 | 0.0 | 12.9 | 0.00 | 0.00 | 0.00 | 51 | 1029.3 |
| 20260505234017 | 23 | 77 | 3.2 | 12.9 | 0.00 | 0.00 | 0.00 | 49 | 1029.2 |
| 20260505233515 | 23 | 78 | 3.2 | 11.3 | 0.00 | 0.00 | 0.00 | 48 | 1029.2 |
| 20260505233015 | 23 | 94 | 3.2 | 9.7 | 0.00 | 0.00 | 0.00 | 48 | 1029.2 |
| 20260505232515 | 23 | 81 | 1.6 | 9.7 | 0.00 | 0.00 | 0.00 | 49 | 1029.1 |
| 20260505232116 | 23 | 98 | 3.2 | 8.0 | 0.00 | 0.00 | 0.00 | 46 | 1029.1 |
| 20260505231515 | 23 | 89 | 0.0 | 6.4 | 0.00 | 0.00 | 0.00 | 48 | 1029.0 |
| 20260505231014 | 23 | 87 | 1.6 | 9.7 | 0.00 | 0.00 | 0.00 | 46 | 1029.0 |
| 20260505230514 | 23 | 90 | 0.0 | 9.7 | 0.00 | 0.00 | 0.00 | 47 | 1028.8 |
| 20260505230013 | 23 | 82 | 0.0 | 6.4 | 0.00 | 0.00 | 0.00 | 48 | 1028.8 |
| 20260505225512 | 23 | 217 | 0.0 | 6.4 | 0.00 | 0.00 | 0.00 | 47 | 1028.7 |
| 20260505225011 | 23 | 87 | 0.0 | 4.8 | 0.00 | 0.00 | 0.00 | 46 | 1028.7 |
| 20260505224512 | 24 | 78 | 0.0 | 3.2 | 0.00 | 0.00 | 0.00 | 47 | 1028.7 |
| 20260505224011 | 24 | 93 | 0.0 | 3.2 | 0.00 | 0.00 | 0.00 | 46 | 1028.7 |
| 20260505223519 | 24 | 105 | 0.0 | 9.7 | 0.00 | 0.00 | 0.00 | 47 | 1028.7 |
| 20260505223011 | 24 | 86 | 0.0 | 9.7 | 0.00 | 0.00 | 0.00 | 46 | 1028.7 |
| 20260505222513 | 24 | 80 | 1.6 | 12.9 | 0.00 | 0.00 | 0.00 | 46 | 1028.8 |
| 20260505222011 | 24 | 101 | 3.2 | 12.9 | 0.00 | 0.00 | 0.00 | 45 | 1028.8 |
| 20260505221511 | 24 | 91 | 1.6 | 12.9 | 0.00 | 0.00 | 0.00 | 46 | 1028.8 |
| 20260505221016 | 24 | 94 | 3.2 | 9.7 | 0.00 | 0.00 | 0.00 | 45 | 1028.8 |
| 20260505220510 | 24 | 198 | 1.6 | 9.7 | 0.00 | 0.00 | 0.00 | 44 | 1028.7 |
| 20260505220010 | 24 | 62 | 1.6 | 11.3 | 0.00 | 0.00 | 0.00 | 45 | 1028.6 |
| 20260505215509 | 25 | 249 | 1.6 | 16.1 | 0.00 | 0.00 | 0.00 | 44 | 1028.5 |
| 20260505215011 | 25 | 100 | 1.6 | 16.1 | 0.00 | 0.00 | 0.00 | 46 | 1028.5 |
| 20260505214510 | 25 | 132 | 1.6 | 9.7 | 0.00 | 0.00 | 0.00 | 44 | 1028.4 |
| 20260505214009 | 25 | 257 | 0.0 | 8.0 | 0.00 | 0.00 | 0.00 | 44 | 1028.5 |
| 20260505213508 | 25 | 82 | 1.6 | 9.7 | 0.00 | 0.00 | 0.00 | 43 | 1028.3 |
| 20260505213008 | 25 | 74 | 3.2 | 16.1 | 0.00 | 0.00 | 0.00 | 43 | 1028.3 |
| 20260505212511 | 25 | 103 | 3.2 | 16.1 | 0.00 | 0.00 | 0.00 | 42 | 1028.3 |
| 20260505212009 | 25 | 234 | 3.2 | 9.7 | 0.00 | 0.00 | 0.00 | 43 | 1028.3 |
| 20260505211508 | 25 | 84 | 1.6 | 8.0 | 0.00 | 0.00 | 0.00 | 43 | 1028.3 |
| 20260505211008 | 25 | 89 | 1.6 | 6.4 | 0.00 | 0.00 | 0.00 | 42 | 1028.5 |
| 20260505210508 | 25 | 74 | 1.6 | 12.9 | 0.00 | 0.00 | 0.00 | 43 | 1028.4 |
| 20260505210007 | 25 | 98 | 0.0 | 20.9 | 0.00 | 0.00 | 0.00 | 42 | 1028.4 |
| 20260505205507 | 25 | 90 | 1.6 | 20.9 | 0.00 | 0.00 | 0.00 | 41 | 1028.3 |
| 20260505205007 | 25 | 106 | 4.8 | 17.7 | 0.00 | 0.00 | 0.00 | 41 | 1028.2 |
| 20260505204506 | 25 | 89 | 4.8 | 17.7 | 0.00 | 0.00 | 0.00 | 42 | 1028.3 |
| 20260505204012 | 25 | 86 | 4.8 | 19.3 | 0.00 | 0.00 | 0.00 | 40 | 1028.3 |
| 20260505203506 | 25 | 85 | 1.6 | 19.3 | 0.00 | 0.00 | 0.00 | 40 | 1028.2 |
| 20260505203015 | 25 | 56 | 6.4 | 14.5 | 0.00 | 0.00 | 0.00 | 41 | 1028.2 |
| 20260505202506 | 25 | 86 | 3.2 | 16.1 | 0.00 | 0.00 | 0.00 | 42 | 1028.2 |
| 20260505202006 | 25 | 104 | 4.8 | 17.7 | 0.00 | 0.00 | 0.00 | 41 | 1028.2 |
| 20260505201505 | 25 | 103 | 8.0 | 22.5 | 0.00 | 0.00 | 0.00 | 40 | 1028.2 |
| 20260505201005 | 25 | 86 | 8.0 | 22.5 | 0.00 | 0.00 | 0.00 | 41 | 1028.3 |
| 20260505200505 | 25 | 343 | 3.2 | 19.3 | 0.00 | 0.00 | 0.00 | 42 | 1028.3 |
| 20260505200004 | 26 | 67 | 6.4 | 22.5 | 0.00 | 0.00 | 0.00 | 42 | 1028.3 |
| 20260505195506 | 26 | 91 | 3.2 | 22.5 | 0.00 | 0.00 | 0.00 | 40 | 1028.3 |
| 20260505195003 | 26 | 88 | 3.2 | 17.7 | 0.00 | 0.00 | 0.00 | 41 | 1028.4 |
| 20260505194503 | 26 | 82 | 4.8 | 16.1 | 0.00 | 0.00 | 0.00 | 40 | 1028.3 |
| 20260505194004 | 26 | 63 | 4.8 | 16.1 | 0.00 | 0.00 | 0.00 | 40 | 1028.3 |
| 20260505193502 | 26 | 69 | 4.8 | 20.9 | 0.00 | 0.00 | 0.00 | 42 | 1028.3 |
| 20260505193002 | 26 | 101 | 6.4 | 20.9 | 0.00 | 0.00 | 0.00 | 40 | 1028.3 |
| 20260505192503 | 26 | 111 | 4.8 | 19.3 | 0.00 | 0.00 | 0.00 | 42 | 1028.4 |
| 20260505192101 | 26 | 144 | 6.4 | 19.3 | 0.00 | 0.00 | 0.00 | 40 | 1028.3 |
| 20260505191600 | 27 | 110 | 3.2 | 16.1 | 0.00 | 0.00 | 0.00 | 43 | 1028.5 |
| 20260505191059 | 26 | 269 | 4.8 | 16.1 | 0.00 | 0.00 | 0.00 | 43 | 1028.4 |
| 20260505190602 | 26 | 33 | 3.2 | 22.5 | 0.00 | 0.00 | 0.00 | 44 | 1028.6 |
| 20260505190057 | 26 | 258 | 4.8 | 24.1 | 0.00 | 0.00 | 0.00 | 44 | 1028.8 |
| 20260505185557 | 26 | 70 | 6.4 | 24.1 | 0.00 | 0.00 | 0.00 | 43 | 1028.8 |
| 20260505185056 | 26 | 84 | 6.4 | 25.7 | 0.00 | 0.00 | 0.00 | 47 | 1029.1 |
| 20260505184556 | 26 | 243 | 4.8 | 30.6 | 0.00 | 0.00 | 0.00 | 46 | 1029.1 |
| 20260505184055 | 26 | 282 | 6.4 | 30.6 | 0.00 | 0.00 | 0.00 | 46 | 1029.2 |
| 20260505183557 | 26 | 274 | 4.8 | 27.4 | 0.00 | 0.00 | 0.00 | 47 | 1029.3 |
| 20260505183055 | 26 | 102 | 8.0 | 20.9 | 0.00 | 0.00 | 0.00 | 45 | 1029.4 |
| 20260505182553 | 26 | 105 | 4.8 | 16.1 | 0.00 | 0.00 | 0.00 | 44 | 1029.6 |
| 20260505182052 | 26 | 86 | 3.2 | 19.3 | 0.00 | 0.00 | 0.00 | 50 | 1029.6 |
| 20260505181552 | 26 | 251 | 4.8 | 19.3 | 0.00 | 0.00 | 0.00 | 46 | 1029.7 |
| 20260505181051 | 25 | 96 | 4.8 | 20.9 | 0.00 | 0.00 | 0.00 | 46 | 1029.9 |
| 20260505180555 | 25 | 237 | 4.8 | 20.9 | 0.00 | 0.00 | 0.00 | 47 | 1029.9 |
| 20260505180105 | 26 | 86 | 6.4 | 17.7 | 0.00 | 0.00 | 0.00 | 46 | 1030.0 |
| 20260505175550 | 26 | 97 | 3.2 | 17.7 | 0.00 | 0.00 | 0.00 | 46 | 1030.0 |
| 20260505175050 | 25 | 49 | 3.2 | 17.7 | 0.00 | 0.00 | 0.00 | 45 | 1029.9 |
| 20260505174601 | 26 | 94 | 3.2 | 16.1 | 0.00 | 0.00 | 0.00 | 45 | 1029.9 |
| 20260505174050 | 26 | 77 | 6.4 | 17.7 | 0.00 | 0.00 | 0.00 | 47 | 1030.0 |
| 20260505173549 | 26 | 188 | 4.8 | 27.4 | 0.00 | 0.00 | 0.00 | 45 | 1029.9 |
| 20260505173048 | 26 | 82 | 4.8 | 27.4 | 0.00 | 0.00 | 0.00 | 46 | 1030.0 |
| 20260505172547 | 26 | 86 | 6.4 | 20.9 | 0.00 | 0.00 | 0.00 | 48 | 1029.8 |
| 20260505172046 | 26 | 84 | 3.2 | 16.1 | 0.00 | 0.00 | 0.00 | 46 | 1030.0 |
| 20260505171546 | 26 | 238 | 6.4 | 16.1 | 0.00 | 0.00 | 0.00 | 47 | 1030.1 |
| 20260505171044 | 25 | 254 | 8.0 | 19.3 | 0.00 | 0.00 | 0.00 | 48 | 1029.9 |
| 20260505170547 | 25 | 220 | 9.7 | 19.3 | 0.00 | 0.00 | 0.00 | 48 | 1030.0 |
| 20260505170043 | 25 | 103 | 4.8 | 16.1 | 0.00 | 0.00 | 0.00 | 50 | 1030.2 |
| 20260505165542 | 25 | 71 | 6.4 | 16.1 | 0.00 | 0.00 | 0.00 | 50 | 1030.4 |
| 20260505165041 | 25 | 70 | 4.8 | 19.3 | 0.00 | 0.00 | 0.00 | 50 | 1030.5 |
| 20260505164542 | 25 | 115 | 4.8 | 19.3 | 0.00 | 0.00 | 0.00 | 48 | 1030.5 |
| 20260505164040 | 25 | 81 | 6.4 | 16.1 | 0.00 | 0.00 | 0.00 | 53 | 1030.8 |
| 20260505163541 | 25 | 112 | 6.4 | 17.7 | 0.00 | 0.00 | 0.00 | 50 | 1030.7 |
| 20260505163039 | 25 | 63 | 4.8 | 17.7 | 0.00 | 0.00 | 0.00 | 50 | 1030.9 |
| 20260505162539 | 25 | 77 | 4.8 | 17.7 | 0.00 | 0.00 | 0.00 | 48 | 1030.9 |
| 20260505162038 | 25 | 89 | 8.0 | 19.3 | 0.00 | 0.00 | 0.00 | 49 | 1030.9 |
| 20260505161539 | 25 | 110 | 3.2 | 19.3 | 0.00 | 0.00 | 0.00 | 50 | 1031.0 |
| 20260505161038 | 25 | 240 | 1.6 | 12.9 | 0.00 | 0.00 | 0.00 | 51 | 1031.1 |
| 20260505160537 | 25 | 108 | 1.6 | 17.7 | 0.00 | 0.00 | 0.00 | 51 | 1031.1 |
| 20260505153033 | 24 | 113 | 6.4 | 19.3 | 0.00 | 0.00 | 0.00 | 52 | 1031.5 |
| 20260505152535 | 24 | 275 | 6.4 | 19.3 | 0.00 | 0.00 | 0.00 | 50 | 1031.3 |
| 20260505152031 | 24 | 84 | 6.4 | 17.7 | 0.00 | 0.00 | 0.00 | 50 | 1031.5 |
| 20260505151533 | 24 | 77 | 4.8 | 17.7 | 0.00 | 0.00 | 0.00 | 52 | 1031.4 |
| 20260505151030 | 23 | 88 | 3.2 | 30.6 | 0.00 | 0.00 | 0.00 | 53 | 1031.5 |
| 20260505150531 | 23 | 68 | 8.0 | 30.6 | 0.00 | 0.00 | 0.00 | 51 | 1031.5 |
| 20260505140521 | 23 | 94 | 3.2 | 12.9 | 0.00 | 0.00 | 0.00 | 56 | 1031.5 |
| 20260505125007 | 20 | 86 | 3.2 | 14.5 | 0.00 | 0.00 | 0.00 | 60 | 1032.1 |
| 20260505124507 | 20 | 86 | 0.0 | 8.0 | 0.00 | 0.00 | 0.00 | 62 | 1032.2 |
| 20260505124007 | 20 | 80 | 0.0 | 9.7 | 0.00 | 0.00 | 0.00 | 62 | 1032.2 |
| 20260505123504 | 20 | 122 | 3.2 | 9.7 | 0.00 | 0.00 | 0.00 | 61 | 1032.3 |
| 20260505123004 | 20 | 80 | 1.6 | 4.8 | 0.00 | 0.00 | 0.00 | 63 | 1032.3 |
| 20260505122503 | 20 | 241 | 0.0 | 6.4 | 0.00 | 0.00 | 0.00 | 62 | 1032.0 |
| 20260505122001 | 19 | 86 | 0.0 | 6.4 | 0.00 | 0.00 | 0.00 | 63 | 1031.9 |
| 20260505121501 | 19 | 90 | 0.0 | 6.4 | 0.00 | 0.00 | 0.00 | 65 | 1032.2 |
| 20260505121100 | 18 | 91 | 0.0 | 0.0 | 0.00 | 0.00 | 0.00 | 64 | 1032.2 |
| 20260505120559 | 18 | 91 | 0.0 | 0.0 | 0.00 | 0.00 | 0.00 | 64 | 1032.0 |
| 20260505120058 | 18 | 91 | 0.0 | 0.0 | 0.00 | 0.00 | 0.00 | 67 | 1032.1 |
| 20260505115557 | 17 | 91 | 0.0 | 0.0 | 0.00 | 0.00 | 0.00 | 68 | 1032.1 |
| 20260505115057 | 17 | 91 | 0.0 | 0.0 | 0.00 | 0.00 | 0.00 | 68 | 1032.2 |
| 20260505114557 | 17 | 91 | 0.0 | 0.0 | 0.00 | 0.00 | 0.00 | 67 | 1032.2 |
| 20260505114057 | 18 | 77 | 0.0 | 0.0 | 0.00 | 0.00 | 0.00 | 67 | 1032.2 |
| 20260505113557 | 17 | 77 | 0.0 | 0.0 | 0.00 | 0.00 | 0.00 | 73 | 1032.2 |
| 20260505113110 | 17 | 77 | 0.0 | 0.0 | 0.00 | 0.00 | 0.00 | 73 | 1032.1 |
| 20260505112554 | 16 | 77 | 0.0 | 0.0 | 0.00 | 0.00 | 0.00 | 71 | 1032.1 |
| 20260505112054 | 16 | 77 | 0.0 | 0.0 | 0.00 | 0.00 | 0.00 | 72 | 1032.0 |
| 20260505111554 | 16 | 77 | 0.0 | 0.0 | 0.00 | 0.00 | 0.00 | 72 | 1032.0 |
| 20260505111054 | 17 | 77 | 0.0 | 0.0 | 0.00 | 0.00 | 0.00 | 71 | 1031.8 |
| 20260505110556 | 16 | 77 | 0.0 | 0.0 | 0.00 | 0.00 | 0.00 | 73 | 1031.9 |
| 20260505102049 | 13 | 77 | 0.0 | 0.0 | 0.00 | 0.00 | 0.00 | 76 | 1031.7 |
| 20260505101549 | 13 | 85 | 0.0 | 0.0 | 0.00 | 0.00 | 0.00 | 75 | 1031.4 |
| 20260505101049 | 14 | 86 | 0.0 | 1.6 | 0.00 | 0.00 | 0.00 | 75 | 1031.5 |
| 20260505100548 | 13 | 89 | 0.0 | 1.6 | 0.00 | 0.00 | 0.00 | 75 | 1031.5 |
| 20260505100051 | 13 | 89 | 0.0 | 1.6 | 0.00 | 0.00 | 0.00 | 76 | 1031.4 |
| 20260505095547 | 13 | 87 | 0.0 | 1.6 | 0.00 | 0.00 | 0.00 | 77 | 1031.4 |
| 20260505095048 | 13 | 87 | 0.0 | 1.6 | 0.00 | 0.00 | 0.00 | 78 | 1031.5 |
| 20260505094548 | 13 | 86 | 0.0 | 0.0 | 0.00 | 0.00 | 0.00 | 77 | 1031.4 |
| 20260505094047 | 13 | 86 | 0.0 | 0.0 | 0.00 | 0.00 | 0.00 | 77 | 1031.4 |
| 20260505093547 | 12 | 86 | 0.0 | 0.0 | 0.00 | 0.00 | 0.00 | 78 | 1031.3 |
| 20260505093048 | 12 | 86 | 0.0 | 0.0 | 0.00 | 0.00 | 0.00 | 78 | 1031.2 |